| time (UTC) | temp F | wind direction | speed MPH | gust MPH | rain 1hr in | rain 24hr in | rain mn in | humidity % | barometer mb |
| 20260506061243 | 65 | 0 | 2.0 | 3.0 | 0.00 | 0.00 | 0.00 | 48 | 997.3 |
| 20260506051243 | 64 | 0 | 1.0 | 2.0 | 0.00 | 0.00 | 0.00 | 57 | 997.3 |
| 20260506044243 | 62 | 0 | 1.0 | 1.0 | 0.00 | 0.00 | 0.00 | 62 | 997.3 |
| 20260506042742 | 61 | 0 | 1.0 | 1.0 | 0.00 | 0.00 | 0.00 | 61 | 997.7 |
| 20260506041243 | 61 | 0 | 0.0 | 0.0 | 0.00 | 0.00 | 0.00 | 56 | 997.3 |
| 20260506035742 | 61 | 0 | 0.0 | 0.0 | 0.00 | 0.00 | 0.00 | 57 | 997.4 |
| 20260506034244 | 60 | 0 | 0.0 | 0.0 | 0.00 | 0.00 | 0.00 | 57 | 996.9 |
| 20260506032744 | 60 | 0 | 0.0 | 0.0 | 0.00 | 0.00 | 0.00 | 54 | 996.5 |
| 20260506031243 | 60 | 0 | 0.0 | 0.0 | 0.00 | 0.00 | 0.00 | 56 | 996.5 |
| 20260506025742 | 60 | 0 | 0.0 | 0.0 | 0.00 | 0.00 | 0.00 | 53 | 996.5 |
| 20260506024242 | 60 | 0 | 1.0 | 1.0 | 0.00 | 0.00 | 0.00 | 56 | 996.5 |
| 20260506022742 | 60 | 0 | 0.0 | 0.0 | 0.00 | 0.00 | 0.00 | 55 | 996.5 |
| 20260506021242 | 60 | 0 | 0.0 | 0.0 | 0.00 | 0.00 | 0.00 | 58 | 996.5 |
| 20260506015742 | 59 | 0 | 0.0 | 0.0 | 0.00 | 0.00 | 0.00 | 58 | 996.5 |
| 20260506014242 | 59 | 0 | 0.0 | 0.0 | 0.00 | 0.00 | 0.00 | 62 | 996.5 |
| 20260506012742 | 59 | 0 | 0.0 | 0.0 | 0.00 | 0.00 | 0.00 | 60 | 996.5 |
| 20260506011242 | 59 | 0 | 0.0 | 0.0 | 0.00 | 0.00 | 0.00 | 62 | 996.5 |
| 20260506005741 | 59 | 0 | 0.0 | 0.0 | 0.00 | 0.00 | 0.00 | 60 | 996.5 |
| 20260506004241 | 60 | 0 | 1.0 | 2.0 | 0.00 | 0.00 | 0.00 | 63 | 996.5 |
| 20260506002742 | 60 | 0 | 1.0 | 2.0 | 0.00 | 0.00 | 0.00 | 61 | 996.5 |
| 20260506001241 | 61 | 0 | 1.0 | 1.0 | 0.00 | 0.00 | 0.00 | 64 | 996.3 |
| 20260505235741 | 61 | 0 | 1.0 | 2.0 | 0.00 | 0.00 | 0.00 | 62 | 996.4 |
| 20260505234240 | 62 | 0 | 1.0 | 2.0 | 0.00 | 0.00 | 0.00 | 65 | 996.5 |
| 20260505232740 | 62 | 0 | 1.0 | 2.0 | 0.00 | 0.00 | 0.00 | 63 | 996.5 |
| 20260505231241 | 62 | 0 | 1.0 | 2.0 | 0.00 | 0.00 | 0.00 | 66 | 996.5 |
| 20260505224240 | 62 | 0 | 1.0 | 1.0 | 0.00 | 0.00 | 0.00 | 67 | 996.5 |
| 20260505222741 | 63 | 0 | 1.0 | 1.0 | 0.00 | 0.00 | 0.00 | 65 | 996.5 |
| 20260505221241 | 63 | 0 | 2.0 | 3.0 | 0.00 | 0.00 | 0.00 | 67 | 996.5 |
| 20260505162738 | 76 | 0 | 0.0 | 0.0 | 0.00 | 0.00 | 0.00 | 34 | 994.7 |
| 20260505161237 | 79 | 0 | 0.0 | 0.0 | 0.00 | 0.00 | 0.00 | 32 | 994.3 |
| 20260505152736 | 79 | 0 | 0.0 | 0.0 | 0.00 | 0.00 | 0.00 | 31 | 994.7 |
| 20260505151236 | 79 | 0 | 0.0 | 0.0 | 0.00 | 0.00 | 0.00 | 31 | 994.3 |
| 20260505124236 | 80 | 0 | 0.0 | 0.0 | 0.00 | 0.00 | 0.00 | 32 | 996.3 |
| 20260505122734 | 80 | 0 | 0.0 | 0.0 | 0.00 | 0.00 | 0.00 | 33 | 996.7 |
| 20260505121235 | 79 | 0 | 0.0 | 0.0 | 0.00 | 0.00 | 0.00 | 33 | 996.3 |
| 20260505115734 | 79 | 0 | 3.0 | 6.0 | 0.00 | 0.00 | 0.00 | 33 | 996.7 |
| 20260505114234 | 78 | 0 | 1.0 | 1.0 | 0.00 | 0.00 | 0.00 | 34 | 996.3 |
| 20260505112734 | 78 | 0 | 4.0 | 6.0 | 0.00 | 0.00 | 0.00 | 33 | 996.8 |
| 20260505111234 | 78 | 0 | 1.0 | 2.0 | 0.00 | 0.00 | 0.00 | 31 | 997.0 |
| 20260505101234 | 77 | 0 | 1.0 | 1.0 | 0.00 | 0.00 | 0.00 | 31 | 997.5 |
| 20260505095733 | 77 | 0 | 0.0 | 0.0 | 0.00 | 0.00 | 0.00 | 29 | 997.5 |
| 20260505094233 | 77 | 0 | 0.0 | 0.0 | 0.00 | 0.00 | 0.00 | 31 | 997.6 |
| 20260505092733 | 77 | 0 | 0.0 | 0.0 | 0.00 | 0.00 | 0.00 | 32 | 998.0 |
| 20260505080913 | 71 | 0 | 0.0 | 0.0 | 0.00 | 0.00 | 0.00 | 36 | 998.5 |
| 20260505075412 | 70 | 0 | 0.0 | 0.0 | 0.00 | 0.00 | 0.00 | 38 | 998.5 |
| 20260505073912 | 68 | 0 | 0.0 | 0.0 | 0.00 | 0.00 | 0.00 | 39 | 998.5 |
| 20260505072412 | 68 | 0 | 0.0 | 0.0 | 0.00 | 0.00 | 0.00 | 43 | 998.5 |
| 20260505070914 | 67 | 0 | 0.0 | 0.0 | 0.00 | 0.00 | 0.00 | 43 | 998.5 |
| 20260505065413 | 67 | 0 | 0.0 | 0.0 | 0.00 | 0.00 | 0.00 | 46 | 998.5 |
| 20260505063914 | 68 | 0 | 0.0 | 0.0 | 0.00 | 0.00 | 0.00 | 40 | 998.5 |